User: anonymous
Location: Ladysmith
(45.4630°N, 91.1040°W)
Time: 05:50:02
(UTC-05:00)
Language:

SO-67 - Orbit

View from above orbital plane
View from above orbital plane
View from above satellite
View from above satellite

Ground track
Ground track

The orbit data is extracted from the following two-line orbital elements,

1 35870U 09049F   14238.13950444  .00007574  00000-0  23346-3 0  4565
2 35870 097.1583 257.2210 0002133 146.0422 254.5089 15.33873866274775
Epoch (UTC): 26 August 2014 03:20:53
Eccentricity: 0.0002133
inclination: 97.1583°
perigee height: 463 km
apogee height: 466 km
right ascension of ascending node: 257.2210°
argument of perigee: 146.0422°
revolutions per day: 15.33873866
mean anomaly at epoch: 254.5089°
orbit number at epoch: 27477

The dashed part of the orbit path shows where the satellite is in the earth's shadow,  

DLR